Change the Weather History Date:

Tuesday, November 13, 2012

  Actual Average Record
Temperature  
Mean Temperature 47 °F 48 °F  
Max Temperature 59 °F 60 °F 78 °F (1955)
Min Temperature 35 °F 36 °F 20 °F (1996)
Degree Days  
Heating Degree Days 18 17  
Month to date heating degree days 249 200  
Since 1 July heating degree days 568 547  
Cooling Degree Days 0 0  
Month to date cooling degree days 0 0  
Year to date cooling degree days 1244 1031  
Moisture  
Dew Point 39 °F    
Average Humidity 71    
Maximum Humidity 100    
Minimum Humidity 41    
Precipitation  
Precipitation 0.26 in 0.11 in 1.46 in (1935)
Month to date precipitation 0.55 1.48  
Year to date precipitation 27.13 36.40  
Snow  
Snow 0.00 in - - ()
Month to date snowfall 0.0  
Since 1 July snowfall 0.0  
Since 1 September snowfall 0.0  
Snow Depth 0.00 in    
Sea Level Pressure  
Sea Level Pressure 30.31 in    
Wind  
Wind Speed 5 mph (NNW)    
Max Wind Speed 12 mph    
Max Gust Speed 17 mph    
Visibility 9 miles    
Events Rain    
T = Trace of Precipitation, MM = Missing Value Source: NWS Daily Summary

Daily Weather History Graph

Daily Weather History Graph

Search for Another Location

Airport or City:

Trip Planner

Search our weather history database for the weather conditions in past years. The results will help you decide how hot, cold, wet, or windy it might be!

Date:

Astronomy

Nov. 13, 2012 Rise Set
Actual Time 6:54 AM EST 5:07 PM EST
Civil Twilight 6:26 AM EST 5:35 PM EST
Nautical Twilight 5:55 AM EST 6:06 PM EST
Astronomical Twilight 5:24 AM EST 6:37 PM EST
Moon 6:30 AM EST (11/13) 4:59 PM EST (11/13)
Length of Visible Light 11h 08m
Length of Day
10h 13m
Waning Crescent, 0% of the Moon is Illuminated
Nov 13
Waning Crescent
Nov 13
New
Nov 20
First Quarter
Nov 28
Full
Dec 6
Last Quarter

Hourly Weather History & Observations

Time (EST) Temp. Windchill Dew Point Humidity Pressure Visibility Wind Dir Wind Speed Gust Speed Precip Events Conditions
12:09 AM 57.2 °F - 57.2 °F 100% 30.17 in 2.5 mi Variable 5.8 mph - 0.16 in Rain Rain
12:16 AM 57.2 °F - 57.2 °F 100% 30.18 in 6.0 mi West 8.1 mph - 0.17 in Rain Light Rain
12:24 AM 57.2 °F - 55.4 °F 94% 30.18 in 2.5 mi West 3.5 mph - 0.20 in Rain Heavy Rain
12:31 AM 55.4 °F - 55.4 °F 100% 30.19 in 3.0 mi Variable 3.5 mph - 0.23 in Rain Light Rain
12:38 AM 55.4 °F - 55.4 °F 100% 30.19 in 4.0 mi Variable 3.5 mph - 0.25 in Rain Light Rain
12:47 AM 55.4 °F - 55.4 °F 100% 30.20 in 6.0 mi Variable 3.5 mph - 0.25 in Rain Light Rain
12:54 AM 55.0 °F - 54.0 °F 96% 30.19 in 5.0 mi WNW 3.5 mph - 0.26 in Rain Light Rain
1:45 AM 51.8 °F - 48.2 °F 88% 30.20 in 10.0 mi North 9.2 mph - 0.01 in   Overcast
1:54 AM 50.0 °F - 48.0 °F 93% 30.19 in 10.0 mi Variable 4.6 mph - 0.01 in   Overcast
2:54 AM 48.9 °F - 45.0 °F 86% 30.22 in 10.0 mi NW 3.5 mph - 0.00 in Rain Light Rain
3:43 AM 48.2 °F - 44.6 °F 87% 30.23 in 10.0 mi Calm Calm - 0.00 in Rain Light Rain
3:54 AM 48.0 °F - 44.1 °F 86% 30.22 in 10.0 mi Variable 3.5 mph - 0.00 in   Overcast
4:54 AM 46.0 °F 41.4 °F 39.9 °F 79% 30.24 in 10.0 mi North 9.2 mph - N/A   Overcast
5:54 AM 45.0 °F 41.2 °F 39.9 °F 82% 30.26 in 10.0 mi Variable 6.9 mph - 0.00 in Rain Light Rain
6:54 AM 43.0 °F 39.5 °F 41.0 °F 93% 30.31 in 4.0 mi Variable 5.8 mph - 0.04 in Rain Light Rain
7:54 AM 43.0 °F 41.3 °F 41.0 °F 93% 30.34 in 10.0 mi NNW 3.5 mph - 0.02 in   Overcast
8:54 AM 45.0 °F 43.5 °F 41.0 °F 86% 30.37 in 10.0 mi Variable 3.5 mph - N/A   Overcast
9:54 AM 45.0 °F 39.7 °F 35.1 °F 68% 30.39 in 10.0 mi North 10.4 mph 17.3 mph 0.00 in   Overcast
10:54 AM 45.0 °F 41.2 °F 33.1 °F 63% 30.39 in 10.0 mi North 6.9 mph - N/A   Mostly Cloudy
11:54 AM 48.9 °F - 35.1 °F 59% 30.36 in 10.0 mi Variable 5.8 mph - N/A   Clear
12:54 PM 52.0 °F - 32.0 °F 47% 30.33 in 10.0 mi Variable 6.9 mph - N/A   Clear
1:54 PM 53.1 °F - 30.0 °F 41% 30.33 in 10.0 mi NW 5.8 mph - N/A   Clear
2:54 PM 53.1 °F - 30.0 °F 41% 30.32 in 10.0 mi WNW 6.9 mph - N/A   Clear
3:54 PM 52.0 °F - 28.9 °F 41% 30.34 in 10.0 mi WNW 5.8 mph - N/A   Clear
4:54 PM 48.0 °F - 28.0 °F 46% 30.35 in 10.0 mi Calm Calm - N/A   Clear
5:54 PM 41.0 °F - 30.0 °F 65% 30.38 in 10.0 mi Calm Calm - N/A   Clear
6:54 PM 39.9 °F 37.8 °F 30.0 °F 68% 30.40 in 10.0 mi NNE 3.5 mph - N/A   Clear
7:54 PM 39.0 °F 35.7 °F 30.0 °F 70% 30.42 in 10.0 mi NNE 4.6 mph - N/A   Clear
8:54 PM 39.9 °F 35.1 °F 28.0 °F 63% 30.45 in 10.0 mi NE 6.9 mph - N/A   Clear
9:54 PM 39.0 °F 34.8 °F 27.0 °F 62% 30.45 in 10.0 mi East 5.8 mph - N/A   Clear
10:54 PM 37.0 °F 32.4 °F 27.0 °F 67% 30.47 in 10.0 mi NE 5.8 mph - N/A   Clear
11:54 PM 36.0 °F 31.1 °F 27.0 °F 70% 30.47 in 10.0 mi NE 5.8 mph - N/A   Clear